Zurück zum Katalog

SL-16 DEB

AktivLEO
NORAD 39865·DEBRIS·🇷🇺 Russia

Gestartet Dec 25, 1992 von Baikonur Cosmodrome

Loading…

Nächste Überflüge (nächste 24 Stunden)

TLE

AktuellSource: Space-Track

Epoche: Sep 13, 2026, 07:00 UTC

1 39865U 92093LT  26256.29218522  .00001069  00000-0  36059-3 0  9998
2 39865  71.0115 225.9128 0005191 209.3945 150.6900 14.39242485641908

Verfolge SL-16 DEB in Echtzeit mit AllMySat

Download on the App Store